TIME,DELAY(SENSOR),PRES,OXYGEN,RAWTEMP,T(OPTODE),TCPHASE,FLUOR,BETA(BETA700),BETA(BETA412),BETA(BETA440),CDOM,C(CSC),ED(ED411.90),ED(ED443.80),ED(ED489.40),ED(ED554.70),LU(LU412.20),LU(LU443.80),LU(LU489.40),LU(LU555.00),COMP,TILTX,TILTY,CHECK
1363904864,5807,888.1699829101562000,172.5655975341797000,461.0893859863281000,8.7318553924560550,39.0511817932128900,82,828,95,77,80,11446,2146960813,2147516032,2147291300,2147507044,2147084068,2146928658,2147704649,2147122185,3184,-1,8,8947
1363908460,5807,990.8900146484375000,219.3943939208984400,529.4459838867188000,6.6129651069641110,37.2763595581054700,85,891,96,78,80,11444,2146964854,2147518592,2147300251,2147519268,2147089718,2146919250,2147720438,2147122541,1114,-1,8,27409
1363912060,5807,1016.2199707031250000,233.2167053222656200,539.2022705078125000,6.3079090118408200,36.6984291076660160,85,898,97,77,79,11445,2146967113,2147519597,2147300461,2147518720,2147086811,2146918464,2147725147,2147118884,167,0,8,51535
1363915660,5808,1019.0700073242188000,231.8489990234375000,539.8320922851562000,6.2881932258605960,36.7828292846679700,86,908,94,87,79,11442,2146964516,2147517248,2147298870,2147522002,2147089536,2146920621,2147724425,2147118582,3040,-1,8,40374
1363919260,5806,1026.4300537109375000,234.2109069824218800,540.0781250000000000,6.2804889678955080,36.6626091003418000,86,907,96,76,80,11440,2146966710,2147520310,2147298048,2147522779,2147086683,2146916626,2147725440,2147120576,2953,-1,8,51730
1363922860,5804,1034.6500244140625000,235.3052978515625000,539.9005126953125000,6.2860507965087890,36.6015205383300800,84,913,96,77,81,11439,2146963648,2147519030,2147300717,2147518198,2147086354,2146922477,2147725156,2147119826,2755,-1,8,65069
1363926460,5807,1038.3800048828125000,234.4906005859375000,538.7764282226562000,6.3212389945983890,36.6240196228027340,85,911,100,77,80,11436,2146965193,2147515254,2147298002,2147520850,2147086198,2146921664,2147721133,2147119177,3566,-1,9,47951
1363930060,5805,1036.9799804687500000,234.7966003417968800,538.9520874023438000,6.3157410621643070,36.6114311218261700,85,917,95,76,80,11431,2146963126,2147519680,2147298230,2147525046,2147088475,2146919250,2147726921,2147118299,3137,-1,8,17861
1363933660,5808,1029.3800048828125000,230.3759002685547000,537.5751953125000000,6.3588328361511230,36.8206710815429700,85,908,95,78,80,11439,2146964032,2147517824,2147297051,2147518747,2147088886,2146921380,2147726089,2147120256,15,-1,8,62030
1363937260,5804,1032.7500000000000000,232.7257995605468800,537.7901000976562000,6.3521099090576170,36.7000198364257800,86,908,95,77,79,11436,2146965174,2147520182,2147298496,2147521197,2147086701,2146914468,2147725092,2147120804,3548,-1,9,15954
1363940860,5806,1030.1199951171875000,234.5162963867187500,539.3674926757812000,6.3027381896972660,36.6339912414550800,86,911,96,77,81,11439,2146959963,2147521956,2147296914,2147519725,2147090368,2146923894,2147725028,2147119131,3382,-1,8,4566
1363944460,5805,1032.7800292968750000,234.6799011230468800,540.1992187500000000,6.2766971588134770,36.6403007507324200,86,915,96,77,80,11431,2146959570,2147518710,2147298395,2147521344,2147087753,2146925430,2147725440,2147116086,3400,-1,8,6917
1363948060,5804,1010.8900146484375000,226.7931976318359400,531.9840698242188000,6.5336718559265140,36.9129714965820300,85,911,95,77,80,11436,2146962258,2147519433,2147300379,2147517001,2147087104,2146923382,2147722203,2147117659,2493,-1,8,44215
1363951660,5806,1006.0000000000000000,225.2471008300781200,532.0366210937500000,6.5320339202880860,36.9988784790039060,85,913,94,78,80,11435,2146964160,2147519021,2147299584,2147520758,2147090422,2146920914,2147725165,2147120969,3236,-1,8,35986
1363955260,5807,1001.5399780273438000,224.3367004394531200,533.0228881835938000,6.5012068748474120,37.0656700134277340,86,916,95,76,81,11434,2146964827,2147520585,2147299986,2147518070,2147086363,2146922752,2147720713,2147121298,548,-1,8,27040
1363958860,5809,1007.3599853515625000,227.6183013916015600,533.2672119140625000,6.4935722351074220,36.8912696838378900,85,915,96,75,79,11432,2146960676,2147515492,2147299538,2147520822,2147090532,2146924050,2147722605,2147118125,579,-1,8,60783
1363962460,5804,1007.8200073242188000,226.8058929443359400,531.9812011718750000,6.5337638854980470,36.9122085571289060,85,916,95,78,80,11432,2146963922,2147517915,2147300580,2147519277,2147088265,2146919396,2147716909,2147117942,3201,-1,8,57408
1363966060,5806,1011.5100097656250000,226.4001007080078000,531.8666992187500000,6.5373420715332030,36.9324913024902340,86,919,96,77,80,11428,2146959094,2147518144,2147298541,2147520493,2147088612,2146925504,2147720457,2147121618,2882,-1,8,25152
1363969660,5805,1011.5700073242188000,225.9228057861328000,531.8322143554688000,6.5384202003479000,36.9577293395996100,85,916,95,77,80,11429,2146963163,2147520128,2147298889,2147520749,2147088347,2146923739,2147725604,2147118738,3047,-1,8,28151
1363973260,5806,1013.0200195312500000,224.3840942382812500,530.2365722656250000,6.5882720947265625,37.0132789611816400,85,916,95,76,79,11426,2146965613,2147522477,2147299840,2147522541,2147090450,2146924105,2147721298,2147119131,3500,-1,8,28229
1363976860,5807,1014.0100097656250000,222.4629974365234400,529.9827270507812000,6.5962028503417970,37.1153182983398440,86,918,96,77,80,11427,2146962496,2147519030,2147297581,2147521426,2147088649,2146928704,2147721682,2147118528,60,-1,8,56919
1363980460,5806,1024.2800292968750000,220.9160003662109400,527.2338867187500000,6.6820321083068850,37.1520500183105500,86,918,95,77,80,11428,2146961691,2147521682,2147298614,2147517988,2147086043,2146920283,2147720128,2147119606,3403,-1,8,56506
1363984060,5807,1017.5000000000000000,218.0249023437500000,525.6162109375000000,6.7325191497802730,37.2859802246093750,86,914,95,78,80,11426,2146964507,2147521545,2147299392,2147517796,2147088484,2146926107,2147721792,2147117174,3108,-1,8,7153
1363987660,5809,1015.7100219726562000,219.9084930419922000,529.1301269531250000,6.6228308677673340,37.2423210144043000,85,914,95,77,80,11427,2146964818,2147519698,2147299657,2147521014,2147086436,2146926016,2147718134,2147120155,48,-1,8,50481
1363991260,5807,1020.5599975585938000,221.3202056884765600,528.9348144531250000,6.6289310455322270,37.1598510742187500,86,921,95,77,80,11421,2146965275,2147517769,2147299675,2147518857,2147086729,2146922294,2147718162,2147121682,367,0,9,42931
1363994860,5808,1011.7199707031250000,221.2223052978515600,529.3328857421875000,6.6164951324462890,37.1726112365722660,86,918,95,77,80,11427,2146962139,2147518116,2147298697,2147519414,2147088246,2146919552,2147719798,2147119817,3594,-1,8,43360
1363998460,5806,1006.0200195312500000,224.1358032226562500,533.3471069335938000,6.4910721778869630,37.0826301574707000,86,919,95,76,81,11424,2146960850,2147519670,2147299766,2147514916,2147087332,2146922166,2147719588,2147120786,3400,-1,8,5756
1364002060,5809,1011.5100097656250000,226.3309936523437500,532.5734252929688000,6.5152549743652340,36.9492607116699200,86,930,96,77,79,11423,2146961024,2147525842,2147301421,2147517568,2147088822,2146919140,2147721892,2147122560,2695,0,8,52532
1364005660,5805,1019.3200073242188000,224.6844024658203000,530.1912841796875000,6.5896849632263180,36.9960784912109400,86,923,95,77,80,11421,2146963008,2147518902,2147299062,2147517979,2147088466,2146923849,2147721499,2147119296,3570,-1,8,44811
1364009260,5803,1021.3499755859375000,222.0164947509765600,528.4061279296875000,6.6454367637634280,37.1119918823242200,86,925,95,76,80,11420,2146959680,2147522157,2147297636,2147518454,2147086957,2146921179,2147724086,2147120365,3498,0,8,16848
1364012860,5804,1017.8699951171875000,219.8762969970703000,528.6768188476562000,6.6369838714599610,37.2353706359863300,101,1398,96,78,80,11424,2146961636,2147519195,2147300909,2147518427,2147087734,2146920512,2147720932,2147125101,184,-1,8,1628
1364016460,5810,1021.5300292968750000,220.8208007812500000,528.9890747070312000,6.6272339820861820,37.1884384155273440,103,1388,96,78,80,11423,2146961179,2147516114,2147297883,2147519570,2147087085,2146918070,2147721499,2147119945,19,-1,8,42589
1364020060,5807,1019.7899780273438000,221.4447937011718800,528.9423217773438000,6.6286950111389160,37.1529312133789060,102,1393,97,76,80,11422,2146966491,2147516726,2147298459,2147519570,2147088640,2146924827,2147722249,2147121856,3563,-1,8,55443
1364023660,5805,1023.4299926757812000,221.7445068359375000,528.0505981445312000,6.6565380096435550,37.1208610534668000,103,1392,99,78,79,11420,2146963437,2147518244,2147299986,2147518016,2147087862,2146919643,2147716928,2147120731,3245,-1,9,3202
1364027260,5809,1019.9600219726562000,221.3582000732422000,528.8624877929688000,6.6311869621276855,37.1567611694335940,101,1374,96,77,80,11358,2146963117,2147518025,2147300297,2147516571,2147087122,2146923218,2147722806,2147120813,2685,-1,8,19139
1364030860,5806,1016.4799804687500000,222.7384948730468800,530.7255859375000000,6.5729961395263670,37.1134300231933600,102,1395,96,77,80,11359,2146962194,2147520027,2147299309,2147521206,2147086518,2146919798,2147723547,2147121389,3453,0,8,17135
1364034460,5805,1019.6900024414062000,223.2794036865234400,529.6763916015625000,6.6057682037353520,37.0640907287597660,104,1403,96,77,80,11358,2146963492,2147517796,2147298468,2147520502,2147089627,2146922788,2147721389,2147119241,2907,-1,8,46913
1364038060,5803,1024.4300537109375000,222.5074005126953000,528.7451171875000000,6.6348528861999510,37.0907402038574200,103,1413,94,78,80,11332,2146962724,2147520612,2147295533,2147513462,2147091163,2146923072,2147722093,2147121216,2782,-1,8,40002
1364041660,5803,1019.2600097656250000,223.4714050292968800,530.1458740234375000,6.5911030769348145,37.0625495910644500,103,1404,96,76,80,11356,2146961600,2147522688,2147298194,2147517933,2147090368,2146915931,2147722825,2147123794,3416,-1,8,42589
1364045260,5805,1021.0200195312500000,222.1094055175781200,529.0584106445312000,6.6250691413879395,37.1177482604980500,102,1383,95,77,80,11356,2146961929,2147519844,2147294994,2147518784,2147088100,2146921636,2147723136,2147121316,3159,-1,8,1103
1364048860,5804,1015.5999755859375000,222.7077941894531200,530.7379760742188000,6.5726089477539060,37.1148490905761700,102,1389,96,76,80,11355,2146964224,2147519734,2147295579,2147519094,2147086409,2146928256,2147724269,2147117412,2879,-1,9,8855
1364049355,5805,107.8000030517578100,224.0198974609375000,531.2592163085938000,6.5563240051269530,37.0517807006835940,101,1387,95,78,80,11403,2146963273,2147522340,2147298441,2147520832,2147085988,2146923830,2147714441,2147120594,2590,-1,8,49247
